WZZ2WT LZIB-EPWA

Flight info

Callsign WZZ2WT
Flight time 0h 49m
Altitude 34000
Route NIT M985 NIDOK DCT MEBAN DCT ORTEB DCT KONZI DCT LOGDA
Aircraft A20N/M-SDE1E2E3FGIJ1J4RWXY/LB1

Departure

Time 2026-05-07 21:26
Airport M. R. Štefánik Airport (LZIB)

Arrival

Time 2026-05-07 22:16
Airport Warsaw Chopin Airport (EPWA)
Time Latitude Longitude Altitude Speed Heading
2026-05-07 20:45 48.16892 17.20055 440 ft 0 kts 313°
2026-05-07 21:17 48.16890 17.20059 443 ft 1 kts 313°
2026-05-07 21:17 48.16885 17.20068 429 ft 1 kts 313°
2026-05-07 21:18 48.16880 17.20076 434 ft 1 kts 313°
2026-05-07 21:18 48.16875 17.20085 438 ft 1 kts 317°
2026-05-07 21:18 48.16869 17.20092 436 ft 1 kts 327°
2026-05-07 21:18 48.16862 17.20098 433 ft 1 kts 339°
2026-05-07 21:19 48.16855 17.20102 440 ft 1 kts 354°
2026-05-07 21:19 48.16847 17.20103 437 ft 1 kts 13°
2026-05-07 21:19 48.16840 17.20100 429 ft 1 kts 32°
2026-05-07 21:19 48.16838 17.20099 429 ft 0 kts 36°
2026-05-07 21:20 48.16839 17.20099 429 ft 1 kts 36°
2026-05-07 21:20 48.16851 17.20116 441 ft 4 kts 50°
2026-05-07 21:20 48.16847 17.20160 443 ft 6 kts 124°
2026-05-07 21:21 48.16808 17.20225 436 ft 13 kts 135°
2026-05-07 21:21 48.16726 17.20360 437 ft 14 kts 103°
2026-05-07 21:21 48.16783 17.20474 437 ft 15 kts 45°
2026-05-07 21:21 48.16866 17.20600 431 ft 19 kts 47°
2026-05-07 21:22 48.16926 17.20694 440 ft 19 kts 46°
2026-05-07 21:22 48.17016 17.20836 436 ft 18 kts 46°
2026-05-07 21:22 48.17102 17.20973 434 ft 18 kts 45°
2026-05-07 21:22 48.17196 17.21116 436 ft 20 kts 47°
2026-05-07 21:23 48.17293 17.21262 436 ft 21 kts 47°
2026-05-07 21:23 48.17399 17.21425 437 ft 23 kts 44°
2026-05-07 21:23 48.17516 17.21601 431 ft 23 kts 45°
2026-05-07 21:23 48.17586 17.21770 438 ft 17 kts 88°
2026-05-07 21:24 48.17553 17.21927 437 ft 16 kts 135°
2026-05-07 21:24 48.17562 17.22072 438 ft 17 kts 44°
2026-05-07 21:24 48.17657 17.22207 438 ft 20 kts 44°
2026-05-07 21:24 48.17769 17.22369 433 ft 25 kts 44°
2026-05-07 21:25 48.17898 17.22550 430 ft 22 kts 35°
2026-05-07 21:25 48.17954 17.22619 429 ft 7 kts 144°
2026-05-07 21:25 48.17928 17.22599 428 ft 5 kts 224°
2026-05-07 21:25 48.17876 17.22525 439 ft 32 kts 225°
2026-05-07 21:26 48.17536 17.22032 434 ft 101 kts 224°
2026-05-07 21:26 48.16891 17.21102 447 ft 153 kts 225°
2026-05-07 21:26 48.16095 17.19952 848 ft 170 kts 225°
2026-05-07 21:26 48.15183 17.18661 1450 ft 188 kts 226°
2026-05-07 21:27 48.14209 17.17326 2489 ft 193 kts 227°
2026-05-07 21:27 48.13063 17.16079 3308 ft 218 kts 204°
2026-05-07 21:27 48.11520 17.15874 4351 ft 227 kts 168°
2026-05-07 21:27 48.10127 17.16938 5553 ft 231 kts 137°
2026-05-07 21:28 48.09208 17.18989 6303 ft 245 kts 108°
2026-05-07 21:28 48.08989 17.21409 6659 ft 230 kts 88°
2026-05-07 21:28 48.09120 17.23809 6885 ft 232 kts 78°
2026-05-07 21:28 48.09614 17.26113 7156 ft 235 kts 61°
2026-05-07 21:29 48.10518 17.28145 7971 ft 233 kts 48°
2026-05-07 21:29 48.11472 17.30087 8947 ft 232 kts 58°
2026-05-07 21:29 48.12137 17.32266 9831 ft 236 kts 69°
2026-05-07 21:29 48.12729 17.34664 10311 ft 257 kts 68°
2026-05-07 21:30 48.13410 17.37271 10685 ft 281 kts 67°
2026-05-07 21:30 48.14158 17.40108 11036 ft 305 kts 68°
2026-05-07 21:30 48.14963 17.43175 11344 ft 329 kts 68°
2026-05-07 21:30 48.15819 17.46463 11746 ft 347 kts 68°
2026-05-07 21:31 48.16699 17.49863 12519 ft 353 kts 68°
2026-05-07 21:31 48.17590 17.53317 13308 ft 359 kts 68°
2026-05-07 21:31 48.18481 17.56865 13961 ft 368 kts 70°
2026-05-07 21:31 48.19301 17.60505 14746 ft 370 kts 71°
2026-05-07 21:32 48.20096 17.64181 15508 ft 373 kts 72°
2026-05-07 21:32 48.20900 17.67893 16257 ft 376 kts 72°
2026-05-07 21:32 48.21719 17.71643 16985 ft 380 kts 72°
2026-05-07 21:32 48.22550 17.75417 17711 ft 383 kts 72°
2026-05-07 21:33 48.23392 17.79230 18415 ft 387 kts 72°
2026-05-07 21:33 48.24243 17.83083 19009 ft 391 kts 72°
2026-05-07 21:33 48.25112 17.87014 19402 ft 402 kts 72°
2026-05-07 21:33 48.25992 17.91011 20043 ft 404 kts 73°
2026-05-07 21:34 48.26875 17.95030 20661 ft 407 kts 73°
2026-05-07 21:34 48.27766 17.99092 21260 ft 411 kts 73°
2026-05-07 21:34 48.28867 18.03070 21836 ft 416 kts 62°
2026-05-07 21:34 48.30519 18.06670 22400 ft 421 kts 49°
2026-05-07 21:35 48.32642 18.09734 22905 ft 427 kts 41°
2026-05-07 21:35 48.34904 18.12662 23461 ft 431 kts 41°
2026-05-07 21:35 48.37186 18.15622 23955 ft 435 kts 41°
2026-05-07 21:35 48.39487 18.18616 24417 ft 439 kts 41°
2026-05-07 21:36 48.41803 18.21640 24878 ft 443 kts 41°
2026-05-07 21:36 48.44135 18.24693 25331 ft 446 kts 41°
2026-05-07 21:36 48.46486 18.27773 25769 ft 450 kts 41°
2026-05-07 21:36 48.48855 18.30883 26195 ft 454 kts 41°
2026-05-07 21:37 48.51244 18.34021 26594 ft 457 kts 42°
2026-05-07 21:37 48.53652 18.37188 26992 ft 461 kts 42°
2026-05-07 21:37 48.56074 18.40381 27410 ft 464 kts 42°
2026-05-07 21:37 48.58481 18.43555 27797 ft 467 kts 42°
2026-05-07 21:38 48.60935 18.46798 28184 ft 470 kts 42°
2026-05-07 21:38 48.63400 18.50059 28548 ft 473 kts 42°
2026-05-07 21:38 48.65885 18.53350 28904 ft 476 kts 42°
2026-05-07 21:38 48.68384 18.56665 29260 ft 479 kts 43°
2026-05-07 21:39 48.70902 18.60009 29475 ft 484 kts 44°
2026-05-07 21:39 48.73447 18.63408 29665 ft 490 kts 44°
2026-05-07 21:39 48.76007 18.66836 30031 ft 492 kts 44°
2026-05-07 21:39 48.78578 18.70281 30348 ft 494 kts 44°
2026-05-07 21:40 48.81158 18.73744 30657 ft 497 kts 44°
2026-05-07 21:40 48.83751 18.77227 30949 ft 499 kts 44°
2026-05-07 21:40 48.86355 18.80729 31277 ft 501 kts 44°
2026-05-07 21:40 48.88954 18.84247 31678 ft 500 kts 44°
2026-05-07 21:41 48.91514 18.87816 32075 ft 499 kts 45°
2026-05-07 21:41 48.94057 18.91403 32476 ft 498 kts 45°
2026-05-07 21:41 48.96597 18.94992 32850 ft 498 kts 45°
2026-05-07 21:41 48.99137 18.98577 33220 ft 498 kts 44°
2026-05-07 21:42 49.01676 19.02158 33594 ft 497 kts 44°
2026-05-07 21:42 49.04216 19.05741 33929 ft 497 kts 44°
2026-05-07 21:42 49.06750 19.09317 34042 ft 496 kts 45°
2026-05-07 21:42 49.09280 19.12891 34048 ft 495 kts 45°
2026-05-07 21:43 49.14327 19.20039 34050 ft 496 kts 45°
2026-05-07 21:43 49.19379 19.27213 34047 ft 495 kts 45°
2026-05-07 21:44 49.24428 19.34403 34051 ft 496 kts 45°
2026-05-07 21:44 49.29495 19.41637 34053 ft 499 kts 45°
2026-05-07 21:45 49.34567 19.48906 34043 ft 498 kts 45°
2026-05-07 21:45 49.39598 19.56140 34041 ft 502 kts 45°
2026-05-07 21:46 49.44686 19.63473 34039 ft 501 kts 45°
2026-05-07 21:46 49.49805 19.70750 34035 ft 501 kts 44°
2026-05-07 21:47 49.54972 19.77968 34036 ft 501 kts 44°
2026-05-07 21:47 49.60122 19.85204 34036 ft 501 kts 44°
2026-05-07 21:48 49.65275 19.92482 34030 ft 504 kts 44°
2026-05-07 21:48 49.70428 19.99786 34024 ft 502 kts 44°
2026-05-07 21:49 49.75574 20.07105 34026 ft 503 kts 45°
2026-05-07 21:49 49.80715 20.14437 34021 ft 503 kts 45°
2026-05-07 21:50 49.85846 20.21776 34022 ft 502 kts 45°
2026-05-07 21:50 49.90973 20.29133 34021 ft 502 kts 45°
2026-05-07 21:51 49.96096 20.36506 34025 ft 502 kts 45°
2026-05-07 21:51 50.01221 20.43903 34022 ft 502 kts 45°
2026-05-07 21:52 50.06342 20.51308 33986 ft 502 kts 43°
2026-05-07 21:52 50.09141 20.54530 34009 ft 501 kts 31°
2026-05-07 21:52 50.12285 20.56846 34009 ft 501 kts 18°
2026-05-07 21:53 50.15657 20.58159 34007 ft 499 kts
2026-05-07 21:53 50.19120 20.58579 34019 ft 500 kts 359°
2026-05-07 21:53 50.26104 20.58816 34012 ft 503 kts 359°
2026-05-07 21:54 50.33083 20.59334 33723 ft 502 kts
2026-05-07 21:54 50.36567 20.59672 33077 ft 502 kts
2026-05-07 21:54 50.40060 20.60031 32230 ft 504 kts
2026-05-07 21:55 50.43574 20.60396 31286 ft 508 kts
2026-05-07 21:55 50.47118 20.60766 30287 ft 513 kts
2026-05-07 21:55 50.50684 20.61139 29475 ft 511 kts
2026-05-07 21:55 50.54201 20.61508 29000 ft 501 kts
2026-05-07 21:56 50.57649 20.61871 28481 ft 493 kts
2026-05-07 21:56 50.61051 20.62228 27918 ft 487 kts
2026-05-07 21:56 50.64365 20.62574 27370 ft 481 kts
2026-05-07 21:56 50.67684 20.62922 26813 ft 475 kts
2026-05-07 21:57 50.70963 20.63265 26270 ft 470 kts
2026-05-07 21:57 50.74205 20.63606 25730 ft 465 kts
2026-05-07 21:57 50.77414 20.63943 25192 ft 460 kts
2026-05-07 21:57 50.80592 20.64278 24654 ft 455 kts
2026-05-07 21:58 50.83740 20.64610 24120 ft 452 kts
2026-05-07 21:58 50.86863 20.64939 23554 ft 448 kts
2026-05-07 21:58 50.89956 20.65266 23035 ft 443 kts
2026-05-07 21:58 50.93011 20.65590 22466 ft 437 kts
2026-05-07 21:59 50.96029 20.65911 21954 ft 432 kts
2026-05-07 21:59 50.99010 20.66228 21435 ft 427 kts
2026-05-07 21:59 51.01955 20.66541 20918 ft 422 kts
2026-05-07 21:59 51.04867 20.66851 20410 ft 417 kts
2026-05-07 22:00 51.07746 20.67159 19905 ft 413 kts
2026-05-07 22:00 51.10595 20.67463 19402 ft 408 kts
2026-05-07 22:00 51.13415 20.67765 18896 ft 405 kts
2026-05-07 22:00 51.16219 20.68066 18392 ft 401 kts
2026-05-07 22:01 51.18990 20.68365 17856 ft 397 kts
2026-05-07 22:01 51.21722 20.68660 17359 ft 391 kts
2026-05-07 22:01 51.24422 20.68952 16869 ft 386 kts
2026-05-07 22:01 51.27081 20.69379 16414 ft 381 kts
2026-05-07 22:02 51.29603 20.70458 16164 ft 371 kts 19°
2026-05-07 22:02 51.31941 20.72112 15768 ft 366 kts 26°
2026-05-07 22:02 51.34218 20.73900 15325 ft 362 kts 25°
2026-05-07 22:02 51.36514 20.75530 14712 ft 363 kts 19°
2026-05-07 22:03 51.38933 20.76805 13953 ft 369 kts 15°
2026-05-07 22:03 51.41405 20.77985 13150 ft 372 kts 15°
2026-05-07 22:03 51.43901 20.79198 12318 ft 375 kts 15°
2026-05-07 22:03 51.46372 20.80446 11459 ft 370 kts 16°
2026-05-07 22:04 51.48739 20.81681 10981 ft 355 kts 17°
2026-05-07 22:04 51.51046 20.82904 10522 ft 346 kts 17°
2026-05-07 22:04 51.53324 20.84118 10328 ft 334 kts 17°
2026-05-07 22:04 51.55455 20.85258 10201 ft 320 kts 17°
2026-05-07 22:05 51.57522 20.86365 10083 ft 306 kts 17°
2026-05-07 22:05 51.59510 20.87429 9843 ft 298 kts 17°
2026-05-07 22:05 51.61463 20.88473 9536 ft 292 kts 17°
2026-05-07 22:05 51.63380 20.89499 9190 ft 288 kts 17°
2026-05-07 22:06 51.65272 20.90512 8835 ft 285 kts 17°
2026-05-07 22:06 51.67142 20.91516 8485 ft 282 kts 17°
2026-05-07 22:06 51.68990 20.92508 8139 ft 279 kts 17°
2026-05-07 22:06 51.70820 20.93491 7799 ft 276 kts 17°
2026-05-07 22:07 51.72633 20.94466 7461 ft 273 kts 17°
2026-05-07 22:07 51.74427 20.95432 7124 ft 271 kts 17°
2026-05-07 22:07 51.76209 20.96391 6784 ft 269 kts 17°
2026-05-07 22:07 51.77979 20.97346 6451 ft 267 kts 17°
2026-05-07 22:08 51.79733 20.98293 6103 ft 265 kts 17°
2026-05-07 22:08 51.81473 20.99232 5773 ft 262 kts 17°
2026-05-07 22:08 51.83194 21.00162 5444 ft 260 kts 17°
2026-05-07 22:08 51.84901 21.01085 5117 ft 258 kts 17°
2026-05-07 22:09 51.86597 21.02004 4783 ft 256 kts 17°
2026-05-07 22:09 51.88277 21.02913 4463 ft 254 kts 17°
2026-05-07 22:09 51.89383 21.03512 4249 ft 253 kts 17°
2026-05-07 22:09 51.91043 21.04412 3923 ft 251 kts 17°
2026-05-07 22:10 51.92692 21.05307 3606 ft 249 kts 17°
2026-05-07 22:10 51.94332 21.06197 3287 ft 248 kts 17°
2026-05-07 22:10 51.95963 21.07082 3064 ft 251 kts 18°
2026-05-07 22:10 51.97629 21.07988 3004 ft 247 kts 18°
2026-05-07 22:11 51.99185 21.08838 3005 ft 226 kts 17°
2026-05-07 22:11 52.00639 21.09591 3002 ft 211 kts
2026-05-07 22:11 52.02015 21.09393 3008 ft 193 kts 338°
2026-05-07 22:11 52.03228 21.08413 3003 ft 195 kts 328°
2026-05-07 22:12 52.04396 21.07323 2894 ft 192 kts 332°
2026-05-07 22:12 52.05525 21.06347 2651 ft 176 kts 332°
2026-05-07 22:12 52.06561 21.05441 2406 ft 162 kts 333°
2026-05-07 22:12 52.07515 21.04611 2189 ft 148 kts 333°
2026-05-07 22:13 52.08377 21.03861 1987 ft 134 kts 334°
2026-05-07 22:13 52.09186 21.03157 1808 ft 134 kts 334°
2026-05-07 22:13 52.10035 21.02419 1702 ft 149 kts 334°
2026-05-07 22:13 52.10871 21.01683 1429 ft 140 kts 333°
2026-05-07 22:14 52.11692 21.00942 1232 ft 129 kts 334°
2026-05-07 22:14 52.12469 21.00286 998 ft 125 kts 334°
2026-05-07 22:14 52.13251 20.99638 852 ft 125 kts 333°
2026-05-07 22:14 52.14012 20.98966 714 ft 126 kts 332°
2026-05-07 22:15 52.14782 20.98277 513 ft 126 kts 332°
2026-05-07 22:15 52.15543 20.97615 360 ft 122 kts 333°
2026-05-07 22:15 52.16214 20.97026 335 ft 86 kts 332°
2026-05-07 22:15 52.16614 20.96681 336 ft 56 kts 332°
2026-05-07 22:16 52.16842 20.96522 336 ft 19 kts 349°
2026-05-07 22:16 52.16981 20.96514 336 ft 21 kts
2026-05-07 22:16 52.17097 20.96594 334 ft 18 kts 61°
2026-05-07 22:16 52.17153 20.96612 334 ft 9 kts 323°
2026-05-07 22:17 52.17216 20.96552 334 ft 12 kts 332°
2026-05-07 22:17 52.17297 20.96483 335 ft 14 kts 332°
2026-05-07 22:17 52.17383 20.96406 336 ft 13 kts 332°
2026-05-07 22:17 52.17456 20.96411 333 ft 11 kts 57°
2026-05-07 22:18 52.17498 20.96528 334 ft 13 kts 49°
2026-05-07 22:18 52.17645 20.96459 335 ft 14 kts 336°
2026-05-07 22:18 52.17698 20.96360 333 ft 11 kts 250°
2026-05-07 22:19 52.17673 20.96288 332 ft 0 kts 239°